User: anonymous   Login
Location: Unspecified
(0.0000°N, 0.0000°E)
Time: 18:53:54
(UTC+02:00)
Language:

YAOGAN 1 - Orbit

View from above orbital plane
View from above orbital plane
View from above satellite
View from above satellite

Ground track
Ground track

The orbit data is extracted from the following two-line orbital elements,

1 29092U 06015A   16121.12686699  .00000227  00000-0  34864-4 0  9992
2 29092  98.0051 126.0380 0001497  89.6958 270.4427 14.82643761541157
Epoch (UTC): 30 April 2016 03:02:41
Eccentricity: 0.0001497
inclination: 98.0051°
perigee height: 620 km
apogee height: 622 km
right ascension of ascending node: 126.0380°
argument of perigee: 89.6958°
revolutions per day: 14.82643761
mean anomaly at epoch: 270.4427°
orbit number at epoch: 54115

The dashed part of the orbit path shows where the satellite is in the earth's shadow,  

DLR